This is the latest recevied weather packets stored in our database for station/object VK4TOM-13. If no packets are shown the sender has not sent any weather packets the latest 1 day(s).
| Time | Temp. | Humidity | Pressure | Rain* | Wind** | Luminosity | Snow |
|---|---|---|---|---|---|---|---|
| 1778118076 | 30.56° C | 70% | 1015.3 hPa | 0 mm | - | - | - |
| 1778115672 | 28.33° C | 70% | 1016.3 hPa | 0 mm | - | - | - |
| 1778114875 | 28.33° C | 70% | 1016.4 hPa | 0 mm | - | - | - |
| 1778114063 | 28.33° C | 70% | 1016.7 hPa | 0 mm | - | - | - |
| 1778113314 | 27.78° C | 70% | 1016.8 hPa | 0 mm | - | - | - |
| 1778112713 | 27.22° C | 70% | 1017 hPa | 0 mm | - | - | - |
| 1778109708 | 25.56° C | 70% | 1017.1 hPa | 0 mm | - | - | - |
| 1778108506 | 24.44° C | 70% | 1017.2 hPa | 0 mm | - | - | - |
| 1778107905 | 24.44° C | 70% | 1017 hPa | 0 mm | - | - | - |
| 1778107304 | 24.44° C | 70% | 1017.2 hPa | 0 mm | - | - | - |
| 1778106703 | 23.89° C | 70% | 1017.1 hPa | 0 mm | - | - | - |
| 1778103096 | 21.11° C | 70% | 1016.8 hPa | 0 mm | - | - | - |
| 1778101293 | 20.56° C | 70% | 1016.5 hPa | 0 mm | - | - | - |
| 1778100091 | 20° C | 70% | 1016.3 hPa | 0 mm | - | - | - |
| 1778099490 | 20.56° C | 70% | 1016.2 hPa | 0 mm | - | - | - |
| 1778093479 | 21.11° C | 70% | 1015.3 hPa | 0 mm | - | - | - |
| 1778091676 | 21.11° C | 70% | 1014.9 hPa | 0 mm | - | - | - |
| 1778091075 | 21.11° C | 70% | 1015.1 hPa | 0 mm | - | - | - |
| 1778089873 | 21.67° C | 70% | 1015 hPa | 0 mm | - | - | - |
| 1778083862 | 22.22° C | 70% | 1015.6 hPa | 0 mm | - | - | - |
| 1778083261 | 22.22° C | 70% | 1015.6 hPa | 0 mm | - | - | - |
| 1778080857 | 22.22° C | 70% | 1015.8 hPa | 0 mm | - | - | - |
| 1778080256 | 22.22° C | 70% | 1015.8 hPa | 0 mm | - | - | - |
| 1778074846 | 23.33° C | 70% | 1015.6 hPa | 0 mm | - | - | - |
| 1778074245 | 23.89° C | 70% | 1015.8 hPa | 0 mm | - | - | - |
* Rain since midnight (hover to see other rain measurements)
** Current wind speed in m/s (hover to see current wind gust speed)